Regional Weather Roundup
Issued by NWS

Home | Current Version | Previous Version | Text Only | Print | Product List | Glossary On
Versions: 1 2 3 4 5 6 7 8 9 10 11 12 13 14 15 16 17 18 19 20 21 22 23 24 25 26 27 28 29 30 31 32 33 34 35 36 37 38 39 40 41 42 43 44 45 46 47 48 49 50
000
ASUS45 KPSR 290810
RWRAZ

ARIZONA REGIONAL HOURLY WEATHER ROUNDUP
NATIONAL WEATHER SERVICE PHOENIX AZ
100 AM MST THU JAN 29 2015

NOTE: FAIR INDICATES FEW OR NO CLOUDS BELOW 12,000 FEET WITH NO
SIGNIFICANT WEATHER AND/OR OBSTRUCTIONS TO VISIBILITY.

AZZ001>003-036-290900-
NORTHWEST ARIZONA

CITY           SKY/WX    TMP DP  RH WIND       PRES   REMARKS
BULLHEAD CITY  CLOUDY    64  46  52 N20       30.12F
KINGMAN        CLOUDY    47  41  80 E8        30.19F
$$

AZZ004>008-015-016-018-290900-
NORTH CENTRAL ARIZONA

CITY           SKY/WX    TMP DP  RH WIND       PRES   REMARKS
GRAND CANYON   CLOUDY    37  32  82 CALM      30.28F
PRESCOTT       CLOUDY    44  34  67 CALM      30.22F
FLAGSTAFF      CLOUDY    34  28  79 CALM      30.29S
PAYSON         CLOUDY    50  34  53 NE6       30.23S
$$

AZZ009>014-017-290900-
NORTHEAST ARIZONA

CITY           SKY/WX    TMP DP  RH WIND       PRES   REMARKS
WINSLOW        MOCLDY    40  33  76 W5        30.26S
SAINT JOHNS    MOCLDY    36  29  75 S7        30.25F WCI  30
WINDOW ROCK    CLOUDY    33  27  78 CALM      30.30F
SHOW LOW       MOCLDY    34  28  80 SW3       30.29S
$$

AZZ023-290900-
GREATER PHOENIX AREA

CITY           SKY/WX    TMP DP  RH WIND       PRES   REMARKS
PHOENIX        CLOUDY    63  50  62 CALM      30.07S
BUCKEYE          N/A     57  57 100 NW6       30.08F
LUKE AFB       NOT AVBL
DEER VALLEY    CLOUDY    58  47  66 E3        30.08F
SCOTTSDALE     CLOUDY    60  48  64 CALM      30.09F
MESA-GATEWAY   CLOUDY    55  50  82 CALM      30.10F
$$

AZZ027-028-290900-
SOUTHWEST MARICOPA COUNTY AND PINAL COUNTY

CITY           SKY/WX    TMP DP  RH WIND       PRES   REMARKS
CASA GRANDE    CLOUDY    57  48  72 CALM      30.09F
GILA BEND      PTSUNNY   59  55  85 S7        30.07F
$$

AZZ503-504-507>509-290900-
SOUTHEAST ARIZONA

CITY           SKY/WX    TMP DP  RH WIND       PRES   REMARKS
TUCSON         CLOUDY    58  50  75 SE3       30.14F
DAVIS-MONTHAN  CLOUDY    56  50  82 SE7       30.12F
NOGALES        PTCLDY    49  40  71 E5        30.16S
SIERRA VISTA   PTCLDY    50  37  62 SW6       30.19S
DOUGLAS        PTCLDY    45  28  51 CALM      30.17S
SAFFORD        MOCLDY    52  36  54 CALM      30.13R
$$

AZZ020-021-025-026-031-290900-
SOUTHWEST ARIZONA

CITY           SKY/WX    TMP DP  RH WIND       PRES   REMARKS
YUMA           CLOUDY    62  50  64 W5        30.07F
$$

CAZ031-033-041-043-047-048-061-290900-
SOUTHERN CALIFORNIA

CITY           SKY/WX    TMP DP  RH WIND       PRES   REMARKS
DOWNTOWN L.A.  CLOUDY    63  47  55 CALM      30.06F
L.A. AIRPORT   CLOUDY    65  48  54 CALM      30.06F
SAN DIEGO      CLOUDY    62  55  77 CALM      30.07F
BURBANK        CLOUDY    63  41  44 NE5       30.07F
ONTARIO        CLOUDY    59  46  62 N3        30.07F
RIVERSIDE      CLOUDY    64  43  46 E6        30.08F
PALM SPRINGS   CLOUDY    66  43  43 W5        30.13S
EL CENTRO NAS  CLOUDY    59  51  75 W6        30.08F
IMPERIAL       CLOUDY    59  51  75 W6        30.08F
BLYTHE         CLOUDY    61  50  67 N8        30.08F
NEEDLES        CLOUDY    63  46  54 N3        30.12F
$$

NVZ020-UTZ003-290900-
SOUTHERN NEVADA-UTAH

CITY           SKY/WX    TMP DP  RH WIND       PRES   REMARKS
LAS VEGAS      CLOUDY    57  46  66 S5        30.14F
SALT LAKE CITY PTCLDY    34  32  92 S3        30.37S
$$

NMZ009-TXZ055-290900-
NEW MEXICO-WEST TEXAS

CITY           SKY/WX    TMP DP  RH WIND       PRES   REMARKS
ALBUQUERQUE    MOCLDY    45  30  55 NE8       30.28R
EL PASO        MOCLDY    50  37  61 CALM      30.17R
$$


........................KEY........................
SKY/WX - SKY CONDITION/WEATHER
TMP    - TEMPERATURE IN FAHRENHEIT
DP     - DEW POINT IN FAHRENHEIT
RH     - RELATIVE HUMIDITY IN PERCENT
WIND   - DIRECTION AND SPEED IN MILES PER HOUR (MPH)
VRB    - VARIABLE WIND DIRECTION
PRES   - MEAN SEA LEVEL PRESSURE IN INCHES OF MERCURY
         F - FALLING PRESSURE   R - RISING PRESSURE
         S - STEADY PRESSURE
VSB    - VISIBILITY IN MILES
HX     - HEAT INDEX IN FAHRENHEIT
WCI    - WIND CHILL INDEX IN FAHRENHEIT
TC     - TEMPERATURE IN CELSIUS WHICH IS ALSO KNOWN AS
         TEMPERATURE IN CENTIGRADE
AFB    - AIR FORCE BASE
         LUKE AFB IS LUKE AIR FORCE BASE
         DAVIS-MONTHAN IS DAVIS-MONTHAN AIR FORCE BASE
NAS    - NAVAL AIR STATION
         EL CENTRO NAS IS EL CENTRO NAVAL AIR STATION
N/A    - NOT AVAILABLE


USA.gov is the U.S. government's official web portal to all federal, state and local government web resources and services.